[keps] orb10021.2l.amsat

Ray Hoad r.hoad at att.net
Thu Jan 21 20:53:26 PST 2010


SB KEPS @ AMSAT  $ORB10021.N
2Line Orbital Elements 10021.AMSAT

HR AMSAT ORBITAL ELEMENTS FOR AMATEUR SATELLITES IN NASA FORMAT
FROM WA5QGD FORT WORTH,TX January 21, 2010
Send Subscribe/unsubscribe to KEPS at 
http://www.amsat.org/mailman/listinfo/keps
BID: ORB10021.N

DECODE 2-LINE ELSETS WITH THE FOLLOWING KEY:
1 AAAAAU 00  0  0 BBBBB.BBBBBBBB  .CCCCCCCC  00000-0  00000-0 0  DDDZ
2 AAAAA EEE.EEEE FFF.FFFF GGGGGGG HHH.HHHH III.IIII JJ.JJJJJJJJKKKKKZ
KEY: A-CATALOGNUM B-EPOCHTIME C-DECAY D-ELSETNUM E-INCLINATION F-RAAN
G-ECCENTRICITY H-ARGPERIGEE I-MNANOM J-MNMOTION K-ORBITNUM Z-CHECKSUM

TO ALL RADIO AMATEURS BT

AO-07
1 07530U 74089B   10020.64085776 -.00000027 +00000-0 +10000-3 0 06855
2 07530 101.4116 042.1862 0011892 202.9607 157.0933 12.53577550609969
FO-29
1 24278U 96046B   10021.60598263  .00000031  00000-0  65065-4 0  2264
2 24278 098.5239 230.9324 0351023 144.0008 218.5331 13.52947023663289
SO-33
1 25509U 98061B   10020.71275087 +.00000303 +00000-0 +50181-4 0 06357
2 25509 031.4304 262.4667 0353620 080.3706 283.6676 14.28281520586958
RS-22
1 27939U 03042A   10020.57057457 +.00000084 +00000-0 +24986-4 0 09931
2 27939 097.9138 252.1249 0013814 162.2560 197.9134 14.63374663337362
VO-52
1 28650U 05017B   10020.30853681 -.00000131 +00000-0 -10052-4 0 04175
2 28650 097.7148 079.3618 0027874 042.1361 318.1994 14.81668598254796
SO-67
1 35870U 09049F   10021.84247005  .00000485  00000-0  23619-4 0  3748
2 35870 097.3538 074.4328 0010740 205.1472 265.2685 15.22927168 19198
HO-68
1 36122U 09072B   10021.62841039 -.00000045  00000-0  00000+0 0  1125
2 36122 100.4921 083.4244 0007296 311.7779 048.2710 13.16279884  4934
UO-11
1 14781U 84021B   10021.15528234 -.00000072  00000-0 -24512-5 0  1543
2 14781 098.0775 072.2917 0009012 000.2190 359.9067 14.79760968390065
AO-16
1 20439U 90005D   10021.51136976 -.00000021  00000-0  76756-5 0  8027
2 20439 098.3132 345.3490 0010073 240.5053 119.5128 14.31845273 44399
LO-19
1 20442U 90005G   10020.62446836 +.00000079 +00000-0 +44893-4 0 07152
2 20442 098.2749 350.9003 0011136 237.5541 122.4567 14.32079072044439
AO-27
1 22825U 93061C   10020.79311117 +.00000033 +00000-0 +29864-4 0 04401
2 22825 098.4703 332.6977 0008183 349.7366 010.3661 14.29283959850997
IO-26
1 22826U 93061D   10020.81484938 -.00000024 +00000-0 +72986-5 0 01735
2 22826 098.4610 333.3766 0008855 344.6628 015.4284 14.29537757851109
GO-32
1 25397U 98043D   10021.79493266  .00000025  00000-0  28857-4 0   936
2 25397 098.3172 037.2872 0001130 021.9646 338.1591 14.23169964599222
NO-44
1 26931U 01043C   10020.65637756 -.00000208 +00000-0 -48912-4 0 03687
2 26931 067.0499 224.0721 0006772 266.4498 093.5825 14.29578729433665
SO-50
1 27607U 02058C   10020.53407681 -.00000006 +00000-0 +20833-4 0 00846
2 27607 064.5588 084.9805 0041696 143.2927 217.1023 14.71491243380652
CO-55
1 27844U 03031E   10020.68983886  .00000068  00000-0  51669-4 0  7613
2 27844 098.7113 031.7696 0009200 235.5369 124.4938 14.20679541340144
CO-57
1 27848U 03031J   10020.69807130  .00000027  00000-0  32973-4 0  7123
2 27848 098.7168 030.8519 0008854 238.9589 121.0715 14.20475700340100
AO-51
1 28375U 04025K   10021.74302792  .00000007  00000-0  14659-4 0  5851
2 28375 098.0543 023.6348 0083248 181.2978 178.8001 14.40666090292423
CO-56
1 28941U 06005C   09297.68475575  .14491492  29743-5  25760-3 0  5565
2 28941 098.0955 138.9518 0011688 319.8691 040.7485 16.46998778207909
GENESAT1
1 29655U 06058C   10021.88211146  .00025268  00000-0  18332-3 0  9219
2 29655 040.0210 247.1505 0006292 325.8339 034.2077 15.72685363176825
CP3
1 31129U 07012N   10021.11347309  .00000103  00000-0  34602-4 0  4851
2 31129 097.9618 068.4105 0102122 330.6206 028.9252 14.52201874146519
CO-65
1 32785U 08021C   10021.07362635  .00000194  00000-0  31384-4 0  5838
2 32785 097.9161 087.9066 0015937 046.0154 314.2392 14.81571264 93703
KKS-1
1 33493U 09002B   10021.77010165  .00000368  00000-0  54675-4 0  1387
2 33493 098.0707 140.1816 0018907 253.7783 106.1365 14.80826413 53812
SOHLA-1
1 33496U 09002E   10020.46908595 +.00000045 +00000-0 +15904-4 0 00066
2 33496 098.0477 131.5721 0005818 319.5208 040.5565 14.69464710053186
NOAA-10
1 16969U 86073A   10020.59941262 +.00000047 +00000-0 +37006-4 0 09267
2 16969 098.6721 050.8396 0011630 284.3357 075.6521 14.27404744214527
NOAA-11
1 19531U 88089A   10020.79963920 +.00000189 +00000-0 +12021-3 0 09414
2 19531 098.7749 112.3188 0011016 205.6877 154.3756 14.14913029100290
NOAA-12
1 21263U 91032A   10020.68320503 +.00000035 +00000-0 +33824-4 0 04211
2 21263 098.7695 033.8297 0011581 233.5752 126.4356 14.25612039971383
MET-3/5
1 21655U 91056A   10020.95245325 +.00000051 +00000-0 +10000-3 0 07187
2 21655 082.5540 052.6622 0013585 002.9727 357.1467 13.17023734886294
MET-2/21
1 22782U 93055A   10020.91636835 +.00000027 +00000-0 +11045-4 0 06752
2 22782 082.5475 009.2773 0023950 095.4606 264.9317 13.83640418827716
OKEAN-4
1 23317U 94066A   10020.73860202 +.00000188 +00000-0 +20283-4 0 01338
2 23317 082.5420 131.4800 0022452 012.3423 347.8372 14.82757988824609
NOAA-14
1 23455U 94089A   10020.72459802 +.00000002 +00000-0 +24541-4 0 09160
2 23455 098.8909 102.4349 0008755 297.3322 062.6948 14.13777082776667
NOAA-15
1 25338U 98030A   10020.61265513 -.00000082 +00000-0 -16784-4 0 02415
2 25338 098.6064 010.2857 0011265 141.2015 218.9954 14.24802317607731
RESURS
1 25394U 98043A   10020.67144128 -.00000027 +00000-0 +57639-5 0 04139
2 25394 098.3168 046.7013 0000994 332.0632 028.0490 14.24192361599359
FENGYUN1
1 25730U 99025A   10020.87190052 +.00000219 +00000-0 +15321-3 0 09556
2 25730 098.7741 349.7513 0024073 321.3081 038.6329 14.08171608550952
OKEAN-0
1 25860U 99039A   10021.75010187  .00000029  00000-0  11710-4 0  8932
2 25860 097.8138 359.5801 0001019 110.6165 249.5154 14.73608510565338
NOAA-16
1 26536U 00055A   10020.61060399 -.00000282 +00000-0 -12745-3 0 07184
2 26536 099.1772 034.5511 0010892 035.3070 324.8811 14.12542224480990
NOAA-17
1 27453U 02032A   10020.80648547 +.00000120 +00000-0 +70468-4 0 07230
2 27453 098.4542 077.0358 0011369 204.3824 155.6792 14.24124448393721
NOAA-18
1 28654U 05018A   10020.84109282 +.00000193 +00000-0 +13105-3 0 02063
2 28654 098.9347 327.6585 0015083 107.9730 252.3125 14.11320110240658
NOAA-19
1 33591U 09005A   10020.86797687 -.00000093 +00000-0 -27914-4 0 04149
2 33591 098.7746 326.2395 0014208 350.3005 009.7895 14.11018240049132
HUBBLE
1 20580U 90037B   10020.69635005  .00000378  00000-0  16145-4 0  5075
2 20580 028.4693 122.6396 0003374 077.4179 282.6819 15.00880828882565
ISS
1 25544U 98067A   10022.07754745  .00014048  00000-0  85924-4 0  4190
2 25544 051.6438 261.0881 0006748 214.5181 293.0601 15.77653411640452
CO-58
1 28895U 05043F   10021.71687599  .00000152  00000-0  41220-4 0  4930
2 28895 098.0351 270.8720 0018266 027.3484 332.8695 14.59836903225617
FALCON
1 30776U 07006E   10020.93372334 +.00000385 +00000-0 +30734-4 0 07493
2 30776 035.4327 218.1446 0001858 325.8691 034.1905 15.03428780157880
MAST
1 31126U 07012K   10020.63535031 +.00000133 +00000-0 +40645-4 0 07833
2 31126 097.9585 070.1233 0094275 325.3212 034.1873 14.53547625146626
CAPE1
1 31130U 07012P   10021.78374504 -.00000172  00000-0 -28694-4 0  7959
2 31130 097.9597 068.9257 0102582 329.0227 030.4954 14.52124373146419
COMPASS
1 32787U 08021E   10021.70478081  .00000281  00000-0  42325-4 0  5758
2 32787 097.9128 088.3591 0016602 044.7768 315.4778 14.81739720 93807
AAUSAT2
1 32788U 08021F   10020.64114541 +.00000412 +00000-0 +58683-4 0 05692
2 32788 097.9123 087.4032 0016355 048.3124 311.9465 14.81872063093659
DO-64
1 32789U 08021G   10020.72756967  .00000105  00000-0  19933-4 0  5858
2 32789 097.9204 087.8154 0016480 047.3404 312.9198 14.81926600 93660
CO-66
1 32791U 08021J   10021.70657561  .00000174  00000-0  28888-4 0  5653
2 32791 097.9145 088.3888 0016967 042.8715 317.3762 14.81548366 93768
RS-30
1 32953U 08025A   10021.79949354  .00000010  00000-0  00000+0 0  5065
2 32953 082.5031 120.7126 0019751 063.8388 296.4721 12.43002993 75557
TACSAT-3
1 35001U 09028A   10020.48105183  .00003746  00000-0  96498-4 0  1960
2 35001 040.4565 020.2605 0023758 337.0347 022.9405 15.40038916 37843
PHARMSAT
1 35002U 09028B   10020.36273880 +.00003329 +00000-0 +84348-4 0 01966
2 35002 040.4704 019.5942 0026701 340.9460 019.0354 15.40720200037837
HAWKSAT1
1 35003U 09028C   10020.36322708 +.00006582 +00000-0 +15351-3 0 02019
2 35003 040.4626 017.6155 0025698 346.7029 013.3106 15.42174518037867
CP6
1 35004U 09028D   10020.34885402 +.00007658 +00000-0 +17612-3 0 01918
2 35004 040.4632 017.5179 0024884 346.3397 013.6738 15.42454892037859
AEROCUB3
1 35005U 09028E   10020.31184887 +.00014431 +00000-0 +32431-3 0 02009
2 35005 040.4759 018.3902 0024230 342.9992 017.0009 15.42679901037849
DRAGNSAT
1 35690U 09038B   10021.69613950  .00090810  14463-4  23525-3 0  1976
2 35690 051.6350 248.7386 0002462 114.7665 245.4281 15.95066411 27808
POLLUX
1 35693U 09038E   10021.87375692  .00062178  12671-4  18509-3 0  1912
2 35693 051.6358 249.2103 0000497 040.7850 319.3729 15.92776851 27780
CASTOR
1 35694U 09038F   10021.77936244  .00022276  00000-0  92199-4 0  1651
2 35694 051.6400 253.1910 0002345 359.7958 000.3174 15.85764247 27728
METEOR-M
1 35865U 09049A   10021.69077836  .00000176  00000-0  10000-3 0  1078
2 35865 098.7797 076.3908 0003233 066.6733 293.4733 14.21828572 17909
RS-38
1 35869U 09049E   10020.90364909  .00000176  00000-0  10000-3 0  1097
2 35869 098.7780 075.6263 0005430 074.0035 286.1284 14.21973389 17794
/EX






More information about the Keps mailing list